contact:dominique.lefevre@mio.osupytheas.fr, maurice.libes@osupytheas.fr, didier.mallarino@osupytheas.fr
Project:EMSO http://www.emso-fr.org/EMSO-France
Depth: 2436.0 m
Title:EMSO Ligure Ouest : Data MII capteur MICROCAT
DateTime_Computer,Latitude,Longitude,Temperature,Conductivity,Pressure,DateTime_Instrument
DateTime_Computer,Latitude,Longitude,degC,S m-1,dbar,DateTime_Instrument
2023-10-03T00:02:54Z,42.805,6.029,13.3097,4.60155,2470.73,2023-10-03T02:05:18Z
2023-10-03T00:05:57Z,42.805,6.029,13.3126,4.60150,2470.707,2023-10-03T02:08:21Z
2023-10-03T00:09:00Z,42.805,6.029,13.3124,4.60149,2470.73,2023-10-03T02:11:24Z
2023-10-03T00:12:03Z,42.805,6.029,13.3133,4.60135,2470.754,2023-10-03T02:14:27Z
2023-10-03T00:15:07Z,42.805,6.029,13.3095,4.60168,2470.717,2023-10-03T02:17:30Z
2023-10-03T00:18:10Z,42.805,6.029,13.3101,4.60151,2470.73,2023-10-03T02:20:33Z
2023-10-03T00:21:13Z,42.805,6.029,13.3099,4.60173,2470.74,2023-10-03T02:23:36Z
2023-10-03T00:24:16Z,42.805,6.029,13.3101,4.60148,2470.73,2023-10-03T02:26:39Z
2023-10-03T00:27:19Z,42.805,6.029,13.3092,4.60162,2470.693,2023-10-03T02:29:42Z
2023-10-03T00:30:22Z,42.805,6.029,13.3122,4.60148,2470.707,2023-10-03T02:32:45Z
2023-10-03T00:33:25Z,42.805,6.029,13.3096,4.60188,2470.73,2023-10-03T02:35:48Z
2023-10-03T00:36:28Z,42.805,6.029,13.3091,4.60173,2470.73,2023-10-03T02:38:52Z
2023-10-03T00:39:31Z,42.805,6.029,13.3102,4.60141,2470.73,2023-10-03T02:41:55Z
2023-10-03T00:42:34Z,42.805,6.029,13.3093,4.60140,2470.721,2023-10-03T02:44:58Z
2023-10-03T00:45:37Z,42.805,6.029,13.3063,4.60162,2470.707,2023-10-03T02:48:01Z
2023-10-03T00:48:40Z,42.805,6.029,13.3067,4.60150,2470.754,2023-10-03T02:51:04Z
2023-10-03T00:51:43Z,42.805,6.029,13.3082,4.60158,2470.74,2023-10-03T02:54:07Z
2023-10-03T00:54:47Z,42.805,6.029,13.3080,4.60154,2470.693,2023-10-03T02:57:10Z
2023-10-03T00:57:50Z,42.805,6.029,13.3063,4.60157,2470.684,2023-10-03T03:00:13Z
2023-10-03T01:00:53Z,42.805,6.029,13.3083,4.60130,2470.717,2023-10-03T03:03:16Z
2023-10-03T01:03:56Z,42.805,6.029,13.3106,4.60152,2470.693,2023-10-03T03:06:19Z
2023-10-03T01:06:59Z,42.805,6.029,13.3068,4.60162,2470.707,2023-10-03T03:09:22Z
2023-10-03T01:10:02Z,42.805,6.029,13.3069,4.60193,2470.707,2023-10-03T03:12:25Z
2023-10-03T01:13:05Z,42.805,6.029,13.3077,4.60144,2470.684,2023-10-03T03:15:28Z
2023-10-03T01:16:08Z,42.805,6.029,13.3054,4.60147,2470.67,2023-10-03T03:18:32Z
2023-10-03T01:19:11Z,42.805,6.029,13.3060,4.60140,2470.693,2023-10-03T03:21:35Z
2023-10-03T01:22:14Z,42.805,6.029,13.3074,4.60138,2470.707,2023-10-03T03:24:38Z
2023-10-03T01:25:17Z,42.805,6.029,13.3084,4.60150,2470.693,2023-10-03T03:27:41Z
2023-10-03T01:28:20Z,42.805,6.029,13.3055,4.60180,2470.707,2023-10-03T03:30:44Z
2023-10-03T01:31:23Z,42.805,6.029,13.3054,4.60157,2470.73,2023-10-03T03:33:47Z
2023-10-03T01:34:27Z,42.805,6.029,13.3058,4.60216,2470.717,2023-10-03T03:36:50Z
2023-10-03T01:37:30Z,42.805,6.029,13.3084,4.60170,2470.684,2023-10-03T03:39:53Z
2023-10-03T01:40:33Z,42.805,6.029,13.3091,4.60129,2470.684,2023-10-03T03:42:56Z
2023-10-03T01:43:36Z,42.805,6.029,13.3115,4.60172,2470.684,2023-10-03T03:45:59Z
2023-10-03T01:46:39Z,42.805,6.029,13.3058,4.60173,2470.67,2023-10-03T03:49:02Z
2023-10-03T01:49:42Z,42.805,6.029,13.3070,4.60149,2470.707,2023-10-03T03:52:05Z
2023-10-03T01:52:45Z,42.805,6.029,13.3068,4.60162,2470.684,2023-10-03T03:55:08Z
2023-10-03T01:55:48Z,42.805,6.029,13.3072,4.60186,2470.693,2023-10-03T03:58:12Z
2023-10-03T01:58:51Z,42.805,6.029,13.3096,4.60172,2470.684,2023-10-03T04:01:15Z
2023-10-03T02:01:54Z,42.805,6.029,13.3098,4.60137,2470.684,2023-10-03T04:04:18Z
2023-10-03T02:04:57Z,42.805,6.029,13.3082,4.60155,2470.67,2023-10-03T04:07:21Z
2023-10-03T02:08:00Z,42.805,6.029,13.3078,4.60143,2470.67,2023-10-03T04:10:24Z
2023-10-03T02:11:03Z,42.805,6.029,13.3050,4.60183,2470.684,2023-10-03T04:13:27Z
2023-10-03T02:14:07Z,42.805,6.029,13.3085,4.60197,2470.684,2023-10-03T04:16:30Z
2023-10-03T02:17:10Z,42.805,6.029,13.3049,4.60206,2470.67,2023-10-03T04:19:33Z
2023-10-03T02:20:13Z,42.805,6.029,13.3064,4.60179,2470.661,2023-10-03T04:22:36Z
2023-10-03T02:23:16Z,42.805,6.029,13.3074,4.60173,2470.67,2023-10-03T04:25:39Z
2023-10-03T02:26:19Z,42.805,6.029,13.3051,4.60232,2470.67,2023-10-03T04:28:42Z
2023-10-03T02:29:22Z,42.805,6.029,13.3068,4.60183,2470.67,2023-10-03T04:31:45Z
2023-10-03T02:32:25Z,42.805,6.029,13.3081,4.60208,2470.646,2023-10-03T04:34:48Z
2023-10-03T02:35:28Z,42.805,6.029,13.3106,4.60179,2470.646,2023-10-03T04:37:52Z
2023-10-03T02:38:31Z,42.805,6.029,13.3118,4.60176,2470.67,2023-10-03T04:40:55Z
2023-10-03T02:41:34Z,42.805,6.029,13.3104,4.60178,2470.646,2023-10-03T04:43:58Z
2023-10-03T02:44:37Z,42.805,6.029,13.3092,4.60208,2470.637,2023-10-03T04:47:01Z
2023-10-03T02:47:40Z,42.805,6.029,13.3100,4.60170,2470.646,2023-10-03T04:50:04Z
2023-10-03T02:50:43Z,42.805,6.029,13.3098,4.60161,2470.684,2023-10-03T04:53:07Z
2023-10-03T02:53:47Z,42.805,6.029,13.3105,4.60145,2470.646,2023-10-03T04:56:10Z
2023-10-03T02:56:50Z,42.805,6.029,13.3106,4.60144,2470.684,2023-10-03T04:59:13Z
2023-10-03T02:59:53Z,42.805,6.029,13.3108,4.60167,2470.661,2023-10-03T05:02:16Z
2023-10-03T03:02:56Z,42.805,6.029,13.3079,4.60152,2470.684,2023-10-03T05:05:19Z
2023-10-03T03:05:59Z,42.805,6.029,13.3093,4.60156,2470.624,2023-10-03T05:08:22Z
2023-10-03T03:09:02Z,42.805,6.029,13.3090,4.60173,2470.661,2023-10-03T05:11:25Z
2023-10-03T03:12:05Z,42.805,6.029,13.3090,4.60178,2470.661,2023-10-03T05:14:28Z
2023-10-03T03:15:08Z,42.805,6.029,13.3102,4.60140,2470.646,2023-10-03T05:17:32Z
2023-10-03T03:18:11Z,42.805,6.029,13.3058,4.60152,2470.637,2023-10-03T05:20:35Z
2023-10-03T03:21:14Z,42.805,6.029,13.3106,4.60157,2470.67,2023-10-03T05:23:38Z
2023-10-03T03:24:17Z,42.805,6.029,13.3094,4.60160,2470.646,2023-10-03T05:26:41Z
2023-10-03T03:27:20Z,42.805,6.029,13.3107,4.60150,2470.684,2023-10-03T05:29:44Z
2023-10-03T03:30:23Z,42.805,6.029,13.3104,4.60152,2470.661,2023-10-03T05:32:47Z
2023-10-03T03:33:27Z,42.805,6.029,13.3098,4.60152,2470.646,2023-10-03T05:35:50Z
2023-10-03T03:36:30Z,42.805,6.029,13.3096,4.60183,2470.637,2023-10-03T05:38:53Z
2023-10-03T03:39:33Z,42.805,6.029,13.3073,4.60178,2470.624,2023-10-03T05:41:56Z
2023-10-03T03:42:36Z,42.805,6.029,13.3083,4.60160,2470.646,2023-10-03T05:44:59Z
2023-10-03T03:45:39Z,42.805,6.029,13.3103,4.60180,2470.646,2023-10-03T05:48:02Z
2023-10-03T03:48:42Z,42.805,6.029,13.3106,4.60141,2470.661,2023-10-03T05:51:05Z
2023-10-03T03:51:45Z,42.805,6.029,13.3104,4.60125,2470.624,2023-10-03T05:54:08Z
2023-10-03T03:54:48Z,42.805,6.029,13.3098,4.60135,2470.67,2023-10-03T05:57:12Z
2023-10-03T03:57:51Z,42.805,6.029,13.3102,4.60139,2470.661,2023-10-03T06:00:15Z
2023-10-03T04:00:54Z,42.805,6.029,13.3098,4.60121,2470.637,2023-10-03T06:03:18Z
2023-10-03T04:03:57Z,42.805,6.029,13.3101,4.60153,2470.637,2023-10-03T06:06:21Z
2023-10-03T04:07:00Z,42.805,6.029,13.3101,4.60140,2470.67,2023-10-03T06:09:24Z
2023-10-03T04:10:03Z,42.805,6.029,13.3110,4.60138,2470.661,2023-10-03T06:12:27Z
2023-10-03T04:13:06Z,42.805,6.029,13.3108,4.60117,2470.661,2023-10-03T06:15:30Z
2023-10-03T04:16:10Z,42.805,6.029,13.3098,4.60127,2470.684,2023-10-03T06:18:33Z
2023-10-03T04:19:13Z,42.805,6.029,13.3101,4.60126,2470.684,2023-10-03T06:21:36Z
2023-10-03T04:22:16Z,42.805,6.029,13.3101,4.60132,2470.637,2023-10-03T06:24:39Z
2023-10-03T04:25:19Z,42.805,6.029,13.3106,4.60117,2470.637,2023-10-03T06:27:42Z
2023-10-03T04:28:22Z,42.805,6.029,13.3104,4.60122,2470.6,2023-10-03T06:30:45Z
2023-10-03T04:31:25Z,42.805,6.029,13.3110,4.60135,2470.646,2023-10-03T06:33:48Z
2023-10-03T04:34:28Z,42.805,6.029,13.3102,4.60136,2470.661,2023-10-03T06:36:52Z
2023-10-03T04:37:31Z,42.805,6.029,13.3099,4.60152,2470.684,2023-10-03T06:39:55Z
2023-10-03T04:40:34Z,42.805,6.029,13.3093,4.60151,2470.684,2023-10-03T06:42:58Z
2023-10-03T04:43:37Z,42.805,6.029,13.3091,4.60142,2470.637,2023-10-03T06:46:01Z
2023-10-03T04:46:40Z,42.805,6.029,13.3082,4.60137,2470.637,2023-10-03T06:49:04Z
2023-10-03T04:49:43Z,42.805,6.029,13.3097,4.60125,2470.637,2023-10-03T06:52:07Z
2023-10-03T04:52:46Z,42.805,6.029,13.3115,4.60135,2470.646,2023-10-03T06:55:10Z
2023-10-03T04:55:50Z,42.805,6.029,13.3096,4.60142,2470.684,2023-10-03T06:58:13Z
2023-10-03T04:58:53Z,42.805,6.029,13.3094,4.60141,2470.684,2023-10-03T07:01:16Z
2023-10-03T05:01:56Z,42.805,6.029,13.3095,4.60144,2470.646,2023-10-03T07:04:19Z
2023-10-03T05:04:59Z,42.805,6.029,13.3102,4.60136,2470.646,2023-10-03T07:07:22Z
2023-10-03T05:08:02Z,42.805,6.029,13.3106,4.60144,2470.661,2023-10-03T07:10:25Z
2023-10-03T05:11:05Z,42.805,6.029,13.3101,4.60160,2470.67,2023-10-03T07:13:28Z
2023-10-03T05:14:08Z,42.805,6.029,13.3102,4.60148,2470.684,2023-10-03T07:16:32Z
2023-10-03T05:17:11Z,42.805,6.029,13.3104,4.60144,2470.684,2023-10-03T07:19:35Z
2023-10-03T05:20:14Z,42.805,6.029,13.3112,4.60152,2470.684,2023-10-03T07:22:38Z
2023-10-03T05:23:17Z,42.805,6.029,13.3113,4.60141,2470.661,2023-10-03T07:25:41Z
2023-10-03T05:26:20Z,42.805,6.029,13.3115,4.60150,2470.707,2023-10-03T07:28:44Z
2023-10-03T05:29:23Z,42.805,6.029,13.3109,4.60151,2470.661,2023-10-03T07:31:47Z
2023-10-03T05:32:26Z,42.805,6.029,13.3109,4.60162,2470.684,2023-10-03T07:34:50Z
2023-10-03T05:35:30Z,42.805,6.029,13.3109,4.60166,2470.707,2023-10-03T07:37:53Z
2023-10-03T05:38:33Z,42.805,6.029,13.3112,4.60167,2470.646,2023-10-03T07:40:56Z
2023-10-03T05:41:36Z,42.805,6.029,13.3102,4.60167,2470.707,2023-10-03T07:43:59Z
2023-10-03T05:44:39Z,42.805,6.029,13.3067,4.60173,2470.684,2023-10-03T07:47:02Z
2023-10-03T05:47:42Z,42.805,6.029,13.3048,4.60181,2470.684,2023-10-03T07:50:05Z
2023-10-03T05:50:45Z,42.805,6.029,13.3049,4.60157,2470.67,2023-10-03T07:53:08Z
2023-10-03T05:53:48Z,42.805,6.029,13.3034,4.60238,2470.684,2023-10-03T07:56:11Z
2023-10-03T05:56:51Z,42.805,6.029,13.3031,4.60154,2470.684,2023-10-03T07:59:15Z
2023-10-03T05:59:54Z,42.805,6.029,13.3031,4.60143,2470.693,2023-10-03T08:02:18Z
2023-10-03T06:02:57Z,42.805,6.029,13.3031,4.60130,2470.703,2023-10-03T08:05:21Z
2023-10-03T06:06:00Z,42.805,6.029,13.3029,4.60118,2470.717,2023-10-03T08:08:24Z
2023-10-03T06:09:03Z,42.805,6.029,13.3029,4.60119,2470.717,2023-10-03T08:11:27Z
2023-10-03T06:12:06Z,42.805,6.029,13.3028,4.60120,2470.717,2023-10-03T08:14:30Z
2023-10-03T06:15:09Z,42.805,6.029,13.3031,4.60126,2470.717,2023-10-03T08:17:33Z
2023-10-03T06:18:13Z,42.805,6.029,13.3032,4.60126,2470.717,2023-10-03T08:20:36Z
2023-10-03T06:21:16Z,42.805,6.029,13.3030,4.60122,2470.763,2023-10-03T08:23:39Z
2023-10-03T06:24:19Z,42.805,6.029,13.3030,4.60132,2470.74,2023-10-03T08:26:42Z
2023-10-03T06:27:22Z,42.805,6.029,13.3035,4.60127,2470.754,2023-10-03T08:29:45Z
2023-10-03T06:30:23Z,42.805,6.029,13.3030,4.60132,2470.693,2023-10-03T08:32:47Z
2023-10-03T06:33:26Z,42.805,6.029,13.3029,4.60115,2470.73,2023-10-03T08:35:50Z
2023-10-03T06:36:29Z,42.805,6.029,13.3027,4.60137,2470.777,2023-10-03T08:38:53Z
2023-10-03T06:39:32Z,42.805,6.029,13.3028,4.60117,2470.74,2023-10-03T08:41:56Z
2023-10-03T06:42:36Z,42.805,6.029,13.3029,4.60117,2470.717,2023-10-03T08:44:59Z
2023-10-03T06:45:39Z,42.805,6.029,13.3027,4.60117,2470.763,2023-10-03T08:48:02Z
2023-10-03T06:48:42Z,42.805,6.029,13.3026,4.60119,2470.787,2023-10-03T08:51:05Z
2023-10-03T06:51:45Z,42.805,6.029,13.3028,4.60122,2470.777,2023-10-03T08:54:08Z
2023-10-03T06:54:48Z,42.805,6.029,13.3031,4.60147,2470.763,2023-10-03T08:57:11Z
2023-10-03T06:57:51Z,42.805,6.029,13.3025,4.60137,2470.763,2023-10-03T09:00:14Z
2023-10-03T07:00:54Z,42.805,6.029,13.3026,4.60135,2470.763,2023-10-03T09:03:17Z
2023-10-03T07:03:57Z,42.805,6.029,13.3028,4.60145,2470.81,2023-10-03T09:06:21Z
2023-10-03T07:07:00Z,42.805,6.029,13.3030,4.60135,2470.787,2023-10-03T09:09:24Z
2023-10-03T07:10:03Z,42.805,6.029,13.3029,4.60138,2470.787,2023-10-03T09:12:27Z
2023-10-03T07:13:06Z,42.805,6.029,13.3034,4.60155,2470.824,2023-10-03T09:15:30Z
2023-10-03T07:16:09Z,42.805,6.029,13.3031,4.60152,2470.763,2023-10-03T09:18:33Z
2023-10-03T07:19:12Z,42.805,6.029,13.3026,4.60146,2470.75,2023-10-03T09:21:36Z
2023-10-03T07:22:16Z,42.805,6.029,13.3033,4.60198,2470.81,2023-10-03T09:24:39Z
2023-10-03T07:25:19Z,42.805,6.029,13.3034,4.60164,2470.8,2023-10-03T09:27:42Z
2023-10-03T07:28:22Z,42.805,6.029,13.3026,4.60198,2470.824,2023-10-03T09:30:45Z
2023-10-03T07:31:25Z,42.805,6.029,13.3039,4.60193,2470.824,2023-10-03T09:33:48Z
2023-10-03T07:34:28Z,42.805,6.029,13.3054,4.60178,2470.824,2023-10-03T09:36:51Z
2023-10-03T07:37:31Z,42.805,6.029,13.3069,4.60160,2470.824,2023-10-03T09:39:54Z
2023-10-03T07:40:34Z,42.805,6.029,13.3032,4.60175,2470.787,2023-10-03T09:42:57Z
2023-10-03T07:43:37Z,42.805,6.029,13.3060,4.60137,2470.8,2023-10-03T09:46:01Z
2023-10-03T07:46:40Z,42.805,6.029,13.3043,4.60171,2470.824,2023-10-03T09:49:04Z
2023-10-03T07:49:43Z,42.805,6.029,13.3054,4.60155,2470.833,2023-10-03T09:52:07Z
2023-10-03T07:52:46Z,42.805,6.029,13.3070,4.60170,2470.833,2023-10-03T09:55:10Z
2023-10-03T07:55:49Z,42.805,6.029,13.3051,4.60156,2470.8,2023-10-03T09:58:13Z
2023-10-03T07:58:52Z,42.805,6.029,13.3078,4.60160,2470.833,2023-10-03T10:01:16Z
2023-10-03T08:01:55Z,42.805,6.029,13.3078,4.60156,2470.871,2023-10-03T10:04:19Z
2023-10-03T08:04:59Z,42.805,6.029,13.3092,4.60168,2470.824,2023-10-03T10:07:22Z
2023-10-03T08:08:02Z,42.805,6.029,13.3096,4.60182,2470.833,2023-10-03T10:10:25Z
2023-10-03T08:11:05Z,42.805,6.029,13.3094,4.60197,2470.871,2023-10-03T10:13:28Z
2023-10-03T08:14:08Z,42.805,6.029,13.3109,4.60178,2470.833,2023-10-03T10:16:31Z
2023-10-03T08:17:11Z,42.805,6.029,13.3106,4.60146,2470.871,2023-10-03T10:19:34Z
2023-10-03T08:20:14Z,42.805,6.029,13.3064,4.60179,2470.857,2023-10-03T10:22:37Z
2023-10-03T08:23:17Z,42.805,6.029,13.3077,4.60175,2470.847,2023-10-03T10:25:41Z
2023-10-03T08:26:20Z,42.805,6.029,13.3051,4.60179,2470.833,2023-10-03T10:28:44Z
2023-10-03T08:29:23Z,42.805,6.029,13.3082,4.60167,2470.88,2023-10-03T10:31:47Z
2023-10-03T08:32:26Z,42.805,6.029,13.3091,4.60178,2470.833,2023-10-03T10:34:50Z
2023-10-03T08:35:29Z,42.805,6.029,13.3079,4.60186,2470.894,2023-10-03T10:37:53Z
2023-10-03T08:38:33Z,42.805,6.029,13.3097,4.60162,2470.847,2023-10-03T10:40:56Z
2023-10-03T08:41:36Z,42.805,6.029,13.3104,4.60168,2470.894,2023-10-03T10:43:59Z
2023-10-03T08:44:39Z,42.805,6.029,13.3107,4.60188,2470.847,2023-10-03T10:47:02Z
2023-10-03T08:47:42Z,42.805,6.029,13.3117,4.60173,2470.833,2023-10-03T10:50:05Z
2023-10-03T08:50:45Z,42.805,6.029,13.3124,4.60175,2470.833,2023-10-03T10:53:08Z
2023-10-03T08:53:48Z,42.805,6.029,13.3126,4.60148,2470.847,2023-10-03T10:56:11Z
2023-10-03T08:56:51Z,42.805,6.029,13.3127,4.60142,2470.857,2023-10-03T10:59:15Z
2023-10-03T08:59:54Z,42.805,6.029,13.3133,4.60162,2470.871,2023-10-03T11:02:18Z
2023-10-03T09:02:57Z,42.805,6.029,13.3119,4.60169,2470.871,2023-10-03T11:05:21Z
2023-10-03T09:06:00Z,42.805,6.029,13.3121,4.60144,2470.871,2023-10-03T11:08:24Z
2023-10-03T09:09:03Z,42.805,6.029,13.3120,4.60135,2470.894,2023-10-03T11:11:27Z
2023-10-03T09:12:06Z,42.805,6.029,13.3117,4.60136,2470.894,2023-10-03T11:14:30Z
2023-10-03T09:15:09Z,42.805,6.029,13.3119,4.60155,2470.871,2023-10-03T11:17:33Z
2023-10-03T09:18:13Z,42.805,6.029,13.3118,4.60142,2470.871,2023-10-03T11:20:36Z
2023-10-03T09:21:16Z,42.805,6.029,13.3117,4.60155,2470.857,2023-10-03T11:23:39Z
2023-10-03T09:24:19Z,42.805,6.029,13.3109,4.60188,2470.871,2023-10-03T11:26:42Z
2023-10-03T09:27:22Z,42.805,6.029,13.3111,4.60157,2470.871,2023-10-03T11:29:45Z
2023-10-03T09:30:25Z,42.805,6.029,13.3106,4.60162,2470.833,2023-10-03T11:32:48Z
2023-10-03T09:33:28Z,42.805,6.029,13.3116,4.60157,2470.847,2023-10-03T11:35:51Z
2023-10-03T09:36:31Z,42.805,6.029,13.3114,4.60133,2470.871,2023-10-03T11:38:55Z
2023-10-03T09:39:34Z,42.805,6.029,13.3115,4.60148,2470.894,2023-10-03T11:41:58Z
2023-10-03T09:42:37Z,42.805,6.029,13.3129,4.60144,2470.833,2023-10-03T11:45:01Z
2023-10-03T09:45:40Z,42.805,6.029,13.3080,4.60157,2470.88,2023-10-03T11:48:04Z
2023-10-03T09:48:43Z,42.805,6.029,13.3065,4.60168,2470.847,2023-10-03T11:51:07Z
2023-10-03T09:51:46Z,42.805,6.029,13.3075,4.60164,2470.894,2023-10-03T11:54:10Z
2023-10-03T09:54:50Z,42.805,6.029,13.3032,4.60235,2470.833,2023-10-03T11:57:13Z
2023-10-03T09:57:53Z,42.805,6.029,13.3037,4.60221,2470.894,2023-10-03T12:00:16Z
2023-10-03T10:00:56Z,42.805,6.029,13.3032,4.60242,2470.833,2023-10-03T12:03:19Z
2023-10-03T10:03:59Z,42.805,6.029,13.3036,4.60242,2470.857,2023-10-03T12:06:22Z
2023-10-03T10:07:02Z,42.805,6.029,13.3041,4.60173,2470.857,2023-10-03T12:09:25Z
2023-10-03T10:10:05Z,42.805,6.029,13.3038,4.60184,2470.871,2023-10-03T12:12:28Z
2023-10-03T10:13:08Z,42.805,6.029,13.3046,4.60173,2470.88,2023-10-03T12:15:32Z
2023-10-03T10:16:11Z,42.805,6.029,13.3056,4.60184,2470.871,2023-10-03T12:18:35Z
2023-10-03T10:19:14Z,42.805,6.029,13.3077,4.60186,2470.871,2023-10-03T12:21:38Z
2023-10-03T10:22:17Z,42.805,6.029,13.3089,4.60189,2470.833,2023-10-03T12:24:41Z
2023-10-03T10:25:20Z,42.805,6.029,13.3098,4.60191,2470.857,2023-10-03T12:27:44Z
2023-10-03T10:28:23Z,42.805,6.029,13.3105,4.60188,2470.847,2023-10-03T12:30:47Z
2023-10-03T10:31:27Z,42.805,6.029,13.3113,4.60183,2470.857,2023-10-03T12:33:50Z
2023-10-03T10:34:30Z,42.805,6.029,13.3116,4.60173,2470.871,2023-10-03T12:36:53Z
2023-10-03T10:37:33Z,42.805,6.029,13.3117,4.60152,2470.871,2023-10-03T12:39:56Z
2023-10-03T10:40:36Z,42.805,6.029,13.3128,4.60150,2470.871,2023-10-03T12:42:59Z
2023-10-03T10:43:39Z,42.805,6.029,13.3131,4.60146,2470.833,2023-10-03T12:46:02Z
2023-10-03T10:46:42Z,42.805,6.029,13.3122,4.60147,2470.847,2023-10-03T12:49:05Z
2023-10-03T10:49:45Z,42.805,6.029,13.3133,4.60164,2470.833,2023-10-03T12:52:08Z
2023-10-03T10:52:48Z,42.805,6.029,13.3134,4.60162,2470.871,2023-10-03T12:55:12Z
2023-10-03T10:55:51Z,42.805,6.029,13.3118,4.60169,2470.871,2023-10-03T12:58:15Z
2023-10-03T10:58:54Z,42.805,6.029,13.3115,4.60175,2470.833,2023-10-03T13:01:18Z
2023-10-03T11:01:57Z,42.805,6.029,13.3114,4.60145,2470.857,2023-10-03T13:04:21Z
2023-10-03T11:05:00Z,42.805,6.029,13.3096,4.60140,2470.871,2023-10-03T13:07:24Z
2023-10-03T11:08:03Z,42.805,6.029,13.3070,4.60128,2470.847,2023-10-03T13:10:27Z
2023-10-03T11:11:07Z,42.805,6.029,13.3072,4.60125,2470.81,2023-10-03T13:13:30Z
2023-10-03T11:14:10Z,42.805,6.029,13.3060,4.60135,2470.847,2023-10-03T13:16:33Z
2023-10-03T11:17:13Z,42.805,6.029,13.3073,4.60143,2470.871,2023-10-03T13:19:36Z
2023-10-03T11:20:16Z,42.805,6.029,13.3083,4.60147,2470.847,2023-10-03T13:22:39Z
2023-10-03T11:23:19Z,42.805,6.029,13.3085,4.60134,2470.81,2023-10-03T13:25:42Z
2023-10-03T11:26:22Z,42.805,6.029,13.3090,4.60141,2470.847,2023-10-03T13:28:45Z
2023-10-03T11:29:25Z,42.805,6.029,13.3084,4.60151,2470.857,2023-10-03T13:31:49Z
2023-10-03T11:32:28Z,42.805,6.029,13.3093,4.60146,2470.833,2023-10-03T13:34:52Z
2023-10-03T11:35:31Z,42.805,6.029,13.3108,4.60117,2470.81,2023-10-03T13:37:55Z
2023-10-03T11:38:34Z,42.805,6.029,13.3109,4.60132,2470.8,2023-10-03T13:40:58Z
2023-10-03T11:41:37Z,42.805,6.029,13.3109,4.60146,2470.81,2023-10-03T13:44:01Z
2023-10-03T11:44:40Z,42.805,6.029,13.3083,4.60127,2470.81,2023-10-03T13:47:04Z
2023-10-03T11:47:44Z,42.805,6.029,13.3084,4.60117,2470.824,2023-10-03T13:50:07Z
2023-10-03T11:50:47Z,42.805,6.029,13.3092,4.60132,2470.8,2023-10-03T13:53:10Z
2023-10-03T11:53:50Z,42.805,6.029,13.3082,4.60123,2470.8,2023-10-03T13:56:13Z
2023-10-03T11:56:53Z,42.805,6.029,13.3084,4.60128,2470.847,2023-10-03T13:59:16Z
2023-10-03T11:59:56Z,42.805,6.029,13.3075,4.60130,2470.824,2023-10-03T14:02:19Z
2023-10-03T12:02:59Z,42.805,6.029,13.3074,4.60130,2470.787,2023-10-03T14:05:22Z
2023-10-03T12:06:02Z,42.805,6.029,13.3075,4.60134,2470.787,2023-10-03T14:08:25Z
2023-10-03T12:09:05Z,42.805,6.029,13.3061,4.60116,2470.824,2023-10-03T14:11:29Z
2023-10-03T12:12:08Z,42.805,6.029,13.3055,4.60130,2470.8,2023-10-03T14:14:32Z
2023-10-03T12:15:11Z,42.805,6.029,13.3049,4.60136,2470.8,2023-10-03T14:17:35Z
2023-10-03T12:18:14Z,42.805,6.029,13.3045,4.60144,2470.787,2023-10-03T14:20:38Z
2023-10-03T12:21:17Z,42.805,6.029,13.3059,4.60147,2470.8,2023-10-03T14:23:41Z
2023-10-03T12:24:20Z,42.805,6.029,13.3063,4.60140,2470.833,2023-10-03T14:26:44Z
2023-10-03T12:27:24Z,42.805,6.029,13.3053,4.60139,2470.8,2023-10-03T14:29:47Z
2023-10-03T12:30:27Z,42.805,6.029,13.3070,4.60137,2470.787,2023-10-03T14:32:50Z
2023-10-03T12:33:30Z,42.805,6.029,13.3060,4.60135,2470.787,2023-10-03T14:35:53Z
2023-10-03T12:36:33Z,42.805,6.029,13.3080,4.60122,2470.763,2023-10-03T14:38:56Z
2023-10-03T12:39:36Z,42.805,6.029,13.3082,4.60138,2470.8,2023-10-03T14:41:59Z
2023-10-03T12:42:39Z,42.805,6.029,13.3079,4.60127,2470.763,2023-10-03T14:45:02Z
2023-10-03T12:45:42Z,42.805,6.029,13.3080,4.60137,2470.777,2023-10-03T14:48:06Z
2023-10-03T12:48:45Z,42.805,6.029,13.3082,4.60147,2470.777,2023-10-03T14:51:09Z
2023-10-03T12:51:48Z,42.805,6.029,13.3073,4.60125,2470.763,2023-10-03T14:54:12Z
2023-10-03T12:54:51Z,42.805,6.029,13.3073,4.60137,2470.8,2023-10-03T14:57:15Z
2023-10-03T12:57:54Z,42.805,6.029,13.3078,4.60148,2470.8,2023-10-03T15:00:18Z
2023-10-03T13:00:57Z,42.805,6.029,13.3080,4.60150,2470.777,2023-10-03T15:03:21Z
2023-10-03T13:04:00Z,42.805,6.029,13.3084,4.60123,2470.777,2023-10-03T15:06:24Z
2023-10-03T13:07:04Z,42.805,6.029,13.3092,4.60121,2470.824,2023-10-03T15:09:27Z
2023-10-03T13:10:07Z,42.805,6.029,13.3093,4.60128,2470.777,2023-10-03T15:12:30Z
2023-10-03T13:13:10Z,42.805,6.029,13.3102,4.60134,2470.777,2023-10-03T15:15:33Z
2023-10-03T13:16:13Z,42.805,6.029,13.3096,4.60122,2470.777,2023-10-03T15:18:36Z
2023-10-03T13:19:16Z,42.805,6.029,13.3083,4.60125,2470.777,2023-10-03T15:21:39Z
2023-10-03T13:22:19Z,42.805,6.029,13.3076,4.60144,2470.777,2023-10-03T15:24:43Z
2023-10-03T13:25:22Z,42.805,6.029,13.3076,4.60122,2470.763,2023-10-03T15:27:46Z
2023-10-03T13:28:25Z,42.805,6.029,13.3080,4.60114,2470.754,2023-10-03T15:30:49Z
2023-10-03T13:31:28Z,42.805,6.029,13.3081,4.60125,2470.8,2023-10-03T15:33:52Z
2023-10-03T13:34:31Z,42.805,6.029,13.3075,4.60111,2470.754,2023-10-03T15:36:55Z
2023-10-03T13:37:34Z,42.805,6.029,13.3066,4.60122,2470.763,2023-10-03T15:39:58Z
2023-10-03T13:40:37Z,42.805,6.029,13.3058,4.60143,2470.754,2023-10-03T15:43:01Z
2023-10-03T13:43:41Z,42.805,6.029,13.3065,4.60131,2470.8,2023-10-03T15:46:04Z
2023-10-03T13:46:44Z,42.805,6.029,13.3067,4.60146,2470.74,2023-10-03T15:49:07Z
2023-10-03T13:49:47Z,42.805,6.029,13.3078,4.60154,2470.754,2023-10-03T15:52:10Z
2023-10-03T13:52:50Z,42.805,6.029,13.3082,4.60143,2470.777,2023-10-03T15:55:13Z
2023-10-03T13:55:53Z,42.805,6.029,13.3085,4.60144,2470.777,2023-10-03T15:58:16Z
2023-10-03T13:58:56Z,42.805,6.029,13.3080,4.60138,2470.763,2023-10-03T16:01:19Z
2023-10-03T14:01:59Z,42.805,6.029,13.3084,4.60133,2470.763,2023-10-03T16:04:23Z
2023-10-03T14:05:02Z,42.805,6.029,13.3071,4.60137,2470.754,2023-10-03T16:07:26Z
2023-10-03T14:08:05Z,42.805,6.029,13.3079,4.60139,2470.754,2023-10-03T16:10:29Z
2023-10-03T14:11:08Z,42.805,6.029,13.3082,4.60137,2470.763,2023-10-03T16:13:32Z
2023-10-03T14:14:11Z,42.805,6.029,13.3079,4.60119,2470.754,2023-10-03T16:16:35Z
2023-10-03T14:17:14Z,42.805,6.029,13.3075,4.60120,2470.777,2023-10-03T16:19:38Z
2023-10-03T14:20:17Z,42.805,6.029,13.3074,4.60145,2470.74,2023-10-03T16:22:41Z
2023-10-03T14:23:21Z,42.805,6.029,13.3082,4.60183,2470.754,2023-10-03T16:25:44Z
2023-10-03T14:26:24Z,42.805,6.029,13.3078,4.60124,2470.74,2023-10-03T16:28:47Z
2023-10-03T14:29:27Z,42.805,6.029,13.3083,4.60127,2470.717,2023-10-03T16:31:50Z
2023-10-03T14:32:30Z,42.805,6.029,13.3088,4.60140,2470.74,2023-10-03T16:34:53Z
2023-10-03T14:35:33Z,42.805,6.029,13.3086,4.60132,2470.717,2023-10-03T16:37:56Z
2023-10-03T14:38:36Z,42.805,6.029,13.3085,4.60142,2470.73,2023-10-03T16:41:00Z
2023-10-03T14:41:39Z,42.805,6.029,13.3084,4.60141,2470.754,2023-10-03T16:44:03Z
2023-10-03T14:44:42Z,42.805,6.029,13.3067,4.60150,2470.73,2023-10-03T16:47:06Z
2023-10-03T14:47:45Z,42.805,6.029,13.3054,4.60147,2470.73,2023-10-03T16:50:09Z
2023-10-03T14:50:48Z,42.805,6.029,13.3057,4.60139,2470.754,2023-10-03T16:53:12Z
2023-10-03T14:53:51Z,42.805,6.029,13.3074,4.60144,2470.73,2023-10-03T16:56:15Z
2023-10-03T14:56:54Z,42.805,6.029,13.3085,4.60125,2470.717,2023-10-03T16:59:18Z
2023-10-03T14:59:58Z,42.805,6.029,13.3073,4.60129,2470.754,2023-10-03T17:02:21Z
2023-10-03T15:03:01Z,42.805,6.029,13.3087,4.60129,2470.754,2023-10-03T17:05:24Z